Location: Cedar Brake
(32.2526°N, 97.8459°W)
Time: 09:07:42
(UTC+00:00)

SL-19 R/B - Pass Details

Date: 22 April 2026
Orbit: 874 x 1208 km, 100.5° (Epoch: 15 May)

Event Time Altitude Azimuth Distance (km) Brightness Sun altitude
Rises 09:38:37 0° 11° (N) 3,520 8.1 -26.6°
Reaches altitude 10° 09:40:58 10° 9° (N) 2,604 7.3 -26.2°
Maximum altitude 09:46:42 69° 287° (WNW) 1,020 4.4 -25.3°
Enters shadow 09:47:41 59° 238° (WSW) 1,108 4.4 -25.1°
